Find Starlink 36697

NORAD ID: 67698 Int'l Des: 2026-025 Owner: SPXS Country: US Constellation: starlink operational
LEOCIRCULARRETROGRADE

現在のビュー

3D地球を読み込み中...

About Starlink 36697

Starlink 36697 (NORAD 67698) is a starlink constellation satellite (v2 mini) launched Feb 7, 2026 by SPXS of US. It operates in LEO, CIRCULAR, RETROGRADE orbit with a mass of 575.00 kg.

Starlink 36697について

説明を読み込み中...

次回通過

Passes for default location (London). Set your location on the main map for personalized predictions.

高度履歴

Loading altitude history...

軌道要素

1 67698U 26025F 26194.89148215 .00005234 00000-0 16442-3 0 9995
2 67698 97.2859 305.8041 0000367 130.1356 229.9919 15.33428565 25352
Epoch: Jul 13, 2026 • Age: 20 hours

現在のステータス

高度 490.0 km
遠地点 / 近地点 N/A
速度 7.62 km/s
衛星直下点 -63.43°S, 79.46°W
打ち上げ日 Feb 7, 2026
運用期間 0.4 years
タイプ internet

技術仕様

分類 Payload
質量 575.00 kg
乾燥質量 530.00 kg
総質量 575.00 kg
長さ 0.30 m
直径 4.10 m
スパン 29.00 m
形状 Box + pan
製造者 SPXS
バスタイプ Starlink V2MO
フェーズステータス In Orbit
所有者/国 SPXS/US

Most Searched